Weather History for KTSP - November, 2012

Change the Weather History Date:

Friday, November 30, 2012

  Actual Average Record
Temperature  
Mean Temperature 48 °F -  
Max Temperature 62 °F 51 °F 62 °F (2012)
Min Temperature 35 °F 32 °F 32 °F (2013)
Degree Days  
Heating Degree Days 16    
Moisture  
Dew Point 40 °F    
Average Humidity 77    
Maximum Humidity 100    
Minimum Humidity 27    
Precipitation  
Precipitation 0.00 in - - ()
Sea Level Pressure  
Sea Level Pressure 30.12 in    
Wind  
Wind Speed 6 mph (WNW)    
Max Wind Speed 18 mph    
Max Gust Speed 24 mph    
Visibility 9 miles    
Events      
Averages and records for this station are not official NWS values.
T = Trace of Precipitation, MM = Missing Value Source: NWS Daily Summary

Daily Weather History Graph

Daily Weather History Graph

Search for Another Location

Airport or City:

Trip Planner

Search our weather history database for the weather conditions in past years. The results will help you decide how hot, cold, wet, or windy it might be!

Date:

Astronomy

Nov. 30, 2012 Rise Set
Actual Time 6:43 AM PST 4:41 PM PST
Civil Twilight 6:15 AM PST 5:09 PM PST
Nautical Twilight 5:44 AM PST 5:40 PM PST
Astronomical Twilight 5:13 AM PST 6:11 PM PST
Moon 6:40 PM PST (11/30) 8:18 AM PST (11/30)
Length of Visible Light 10h 54m
Length of Day
9h 58m
Waning Gibbous, 96% of the Moon is Illuminated
Nov 30
Waning Gibbous
Dec 6
Last Quarter
Dec 13
New
Dec 19
First Quarter
Dec 28
Full

Hourly Weather History & Observations

Time (PST) Temp. Windchill Dew Point Humidity Pressure Visibility Wind Dir Wind Speed Gust Speed Precip Events Conditions
12:15 AM 37.4 °F - 37.4 °F 100% 30.14 in 5.0 mi Calm Calm - N/A   Clear
12:35 AM 37.4 °F 33.8 °F 37.4 °F 100% 30.14 in 6.0 mi SSE 4.6 mph - N/A   Clear
12:55 AM 39.2 °F 37.0 °F 39.2 °F 100% 30.14 in 5.0 mi SE 3.5 mph - N/A   Clear
1:15 AM 37.4 °F - 37.4 °F 100% 30.14 in 5.0 mi Calm Calm - N/A   Clear
1:35 AM 37.4 °F - 37.4 °F 100% 30.14 in 4.0 mi Calm Calm - N/A   Clear
1:55 AM 37.4 °F - 37.4 °F 100% 30.14 in 5.0 mi Calm Calm - N/A   Clear
2:15 AM 35.6 °F - 35.6 °F 100% 30.14 in 3.0 mi Calm Calm - N/A   Clear
2:35 AM 35.6 °F - 35.6 °F 100% 30.13 in 5.0 mi Calm Calm - N/A   Clear
2:55 AM 35.6 °F 32.8 °F 35.6 °F 100% 30.13 in 5.0 mi SSE 3.5 mph - N/A   Clear
3:15 AM 37.4 °F 34.9 °F 37.4 °F 100% 30.13 in 7.0 mi ESE 3.5 mph - N/A   Clear
3:35 AM 35.6 °F - 35.6 °F 100% 30.12 in 7.0 mi Calm Calm - N/A   Clear
3:55 AM 37.4 °F 32.1 °F 37.4 °F 100% 30.11 in 7.0 mi East 6.9 mph - N/A   Clear
4:15 AM 37.4 °F - 37.4 °F 100% 30.11 in 9.0 mi Calm Calm - N/A   Clear
4:35 AM 37.4 °F - 37.4 °F 100% 30.11 in 8.0 mi Calm Calm - N/A   Clear
4:55 AM 39.2 °F - 39.2 °F 100% 30.11 in 9.0 mi Calm Calm - N/A   Scattered Clouds
5:15 AM 37.4 °F 34.9 °F 37.4 °F 100% 30.11 in 7.0 mi ESE 3.5 mph - N/A   Overcast
5:35 AM 37.4 °F - 37.4 °F 100% 30.12 in 9.0 mi Calm Calm - N/A   Overcast
5:55 AM 39.2 °F - 39.2 °F 100% 30.12 in 8.0 mi Calm Calm - N/A   Overcast
6:15 AM 39.2 °F 35.9 °F 39.2 °F 100% 30.12 in 9.0 mi ESE 4.6 mph - N/A   Overcast
6:35 AM 39.2 °F 37.0 °F 39.2 °F 100% 30.13 in 10.0 mi ESE 3.5 mph - N/A   Overcast
6:55 AM 41.0 °F - 41.0 °F 100% 30.13 in 9.0 mi Calm Calm - N/A   Mostly Cloudy
7:15 AM 39.2 °F - 39.2 °F 100% 30.13 in 9.0 mi Calm Calm - N/A   Partly Cloudy
7:35 AM 39.2 °F - 39.2 °F 100% 30.12 in 9.0 mi Calm Calm - N/A   Clear
7:55 AM 41.0 °F 36.4 °F 41.0 °F 100% 30.13 in 9.0 mi ESE 6.9 mph - N/A   Clear
8:15 AM 42.8 °F 39.3 °F 42.8 °F 100% 30.12 in 9.0 mi East 5.8 mph - N/A   Clear
8:35 AM 44.6 °F 40.7 °F 44.6 °F 100% 30.12 in 10.0 mi ESE 6.9 mph - N/A   Clear
8:55 AM 46.4 °F 43.5 °F 44.6 °F 93% 30.12 in 10.0 mi SE 5.8 mph - N/A   Clear
9:15 AM 50.0 °F - 46.4 °F 87% 30.12 in 10.0 mi North 3.5 mph - N/A   Clear
9:35 AM 51.8 °F - 46.4 °F 82% 30.11 in 10.0 mi Calm Calm - N/A   Clear
9:55 AM 53.6 °F - 46.4 °F 77% 30.11 in 10.0 mi South 3.5 mph - N/A   Clear
10:15 AM 55.4 °F - 46.4 °F 72% 30.10 in 10.0 mi Calm Calm - N/A   Clear
10:35 AM 57.2 °F - 46.4 °F 67% 30.10 in 10.0 mi Calm Calm - N/A   Clear
10:55 AM 59.0 °F - 41.0 °F 51% 30.11 in 10.0 mi WNW 3.5 mph - N/A   Clear
11:15 AM 60.8 °F - 30.2 °F 31% 30.10 in 10.0 mi WNW 17.3 mph 24.2 mph N/A   Clear
11:35 AM 62.6 °F - 28.4 °F 27% 30.10 in 10.0 mi WNW 16.1 mph 23.0 mph N/A   Clear
11:55 AM 62.6 °F - 28.4 °F 27% 30.10 in 10.0 mi West 18.4 mph 23.0 mph N/A   Clear
12:15 PM 60.8 °F - 28.4 °F 29% 30.09 in 10.0 mi West 18.4 mph 24.2 mph N/A   Clear
12:35 PM 60.8 °F - 30.2 °F 31% 30.09 in 10.0 mi WNW 16.1 mph 23.0 mph N/A   Clear
12:55 PM 60.8 °F - 30.2 °F 31% 30.08 in 10.0 mi West 11.5 mph 19.6 mph N/A   Clear
1:15 PM 60.8 °F - 30.2 °F 31% 30.09 in 10.0 mi WNW 16.1 mph 24.2 mph N/A   Clear
1:35 PM 59.0 °F - 39.2 °F 48% 30.09 in 10.0 mi NW 16.1 mph 24.2 mph N/A   Clear
1:55 PM 59.0 °F - 37.4 °F 45% 30.09 in 10.0 mi WNW 17.3 mph 21.9 mph N/A   Clear
2:15 PM 57.2 °F - 41.0 °F 55% 30.10 in 10.0 mi NW 17.3 mph 24.2 mph N/A   Unknown
2:35 PM 57.2 °F - 39.2 °F 51% 30.10 in 10.0 mi NW 12.7 mph 24.2 mph N/A   Clear
2:55 PM 57.2 °F - 37.4 °F 48% 30.11 in 10.0 mi NW 16.1 mph 24.2 mph N/A   Clear
3:15 PM 57.2 °F - 37.4 °F 48% 30.11 in 10.0 mi WNW 13.8 mph 19.6 mph N/A   Clear
3:35 PM 57.2 °F - 37.4 °F 48% 30.09 in 10.0 mi WNW 15.0 mph 19.6 mph N/A   Scattered Clouds
3:55 PM 55.4 °F - 37.4 °F 51% 30.09 in 10.0 mi West 15.0 mph - N/A   Clear
4:15 PM 55.4 °F - 39.2 °F 54% 30.10 in 10.0 mi NW 15.0 mph 23.0 mph N/A   Mostly Cloudy
4:35 PM 53.6 °F - 41.0 °F 62% 30.09 in 10.0 mi NNW 10.4 mph - N/A   Overcast
4:55 PM 53.6 °F - 41.0 °F 62% 30.09 in 10.0 mi NW 9.2 mph - N/A   Mostly Cloudy
5:15 PM 51.8 °F - 41.0 °F 67% 30.10 in 10.0 mi NW 10.4 mph - N/A   Mostly Cloudy
5:35 PM 51.8 °F - 41.0 °F 67% 30.10 in 10.0 mi WNW 12.7 mph 18.4 mph N/A   Mostly Cloudy
5:55 PM 51.8 °F - 41.0 °F 67% 30.10 in 10.0 mi WNW 16.1 mph - N/A   Mostly Cloudy
6:15 PM 51.8 °F - 42.8 °F 71% 30.11 in 10.0 mi NW 17.3 mph 21.9 mph N/A   Overcast
6:35 PM 51.8 °F - 42.8 °F 71% 30.12 in 10.0 mi NW 13.8 mph 19.6 mph N/A   Overcast
7:15 PM 50.0 °F - 42.8 °F 76% 30.13 in 10.0 mi NW 15.0 mph 19.6 mph N/A   Overcast
7:35 PM 50.0 °F - 44.6 °F 82% 30.13 in 10.0 mi WNW 15.0 mph 19.6 mph N/A   Overcast
7:55 PM 50.0 °F - 42.8 °F 76% 30.13 in 10.0 mi NW 12.7 mph 19.6 mph N/A   Overcast
8:15 PM 50.0 °F - 44.6 °F 82% 30.13 in 10.0 mi NW 11.5 mph - N/A   Overcast
8:35 PM 50.0 °F - 44.6 °F 82% 30.13 in 10.0 mi WNW 13.8 mph 18.4 mph N/A   Overcast
8:55 PM 50.0 °F - 44.6 °F 82% 30.13 in 10.0 mi WNW 12.7 mph - N/A   Overcast
9:15 PM 50.0 °F - 44.6 °F 82% 30.13 in 10.0 mi WNW 10.4 mph - N/A   Overcast
9:35 PM 50.0 °F - 44.6 °F 82% 30.13 in 10.0 mi WNW 10.4 mph - N/A   Overcast
9:55 PM 48.2 °F - 44.6 °F 87% 30.13 in 10.0 mi WNW 8.1 mph - N/A   Overcast
10:15 PM 48.2 °F - 44.6 °F 87% 30.14 in 10.0 mi West 9.2 mph - N/A   Overcast
10:35 PM 50.0 °F - 44.6 °F 82% 30.15 in 10.0 mi NW 15.0 mph - N/A   Overcast
10:55 PM 48.2 °F - 44.6 °F 87% 30.15 in 10.0 mi WNW 12.7 mph 19.6 mph N/A   Overcast
11:15 PM 48.2 °F - 44.6 °F 87% 30.15 in 10.0 mi WNW 11.5 mph - N/A   Overcast
11:35 PM 50.0 °F - 44.6 °F 82% 30.15 in 10.0 mi WNW 9.2 mph - N/A   Overcast
11:55 PM 50.0 °F - 46.4 °F 87% 30.15 in 10.0 mi WNW 12.7 mph 19.6 mph N/A   Overcast